time_stamp(utc),avg(mph),gust(mph),direction(deg),12m_air_temp(f),sonic_u(cm/s),sonic_v(cm/s),sonic_w(cm/s),pressure,2m_air_temp(f),pyranometer(W/m^2)
"2020-10-01 00:03:00+00",9.1,11.1,,65.6,-198,-365,-1,1011.63,64.3,0
"2020-10-01 00:08:00+00",9.6,11.6,,65.7,-230,-374,0,1011.58,64.3,0
"2020-10-01 00:13:00+00",8.4,10.4,,65.4,-172,-328,7,1011.69,64.1,0
"2020-10-01 00:18:00+00",7.7,8.7,,65.2,-179,-299,2,1011.68,63.9,0
"2020-10-01 00:23:00+00",9.2,11.2,,65.6,-256,-335,3,1011.78,64,0
"2020-10-01 00:28:00+00",10.5,12.5,,65.9,-287,-384,6,1011.86,64.2,0
"2020-10-01 00:33:00+00",11.5,12.5,,66.1,-310,-429,3,1011.78,64.5,0
"2020-10-01 00:38:00+00",10.9,12.9,,66.1,-278,-426,3,1011.77,64.6,0
"2020-10-01 00:43:00+00",12.2,14.2,,66.3,-348,-446,7,1011.75,64.8,0
"2020-10-01 00:48:00+00",12.8,14.8,,66.3,-367,-448,21,1011.81,65,0
"2020-10-01 00:53:00+00",15.1,17.1,,66.5,-507,-437,6,1011.87,65.3,0
"2020-10-01 00:58:00+00",16.7,18.7,,66.4,-567,-503,7,1012.07,65.3,0
"2020-10-01 01:03:00+00",14.7,16.7,,66.4,-470,-427,14,1012.18,65.4,0
"2020-10-01 01:08:00+00",14.4,17.4,,66.4,-424,-459,15,1012.1,65.5,0
"2020-10-01 01:13:00+00",15.5,18.5,,66.3,-631,-415,16,1012.29,65.5,0
"2020-10-01 01:18:00+00",16.0,19.0,,66.2,-672,-400,18,1012.15,65.5,0
"2020-10-01 01:23:00+00",14.0,17.0,,65.9,-558,-361,29,1012.15,65.4,0
"2020-10-01 01:28:00+00",13.3,15.3,,65.8,-525,-357,16,1012.23,65.2,0
"2020-10-01 01:33:00+00",13.4,16.4,,65.6,-511,-340,32,1012.25,65.1,0
"2020-10-01 01:38:00+00",12.4,16.4,,65.5,-515,-297,20,1012.13,64.9,0
"2020-10-01 01:43:00+00",12.3,14.3,,65.3,-526,-303,19,1012.15,64.7,0
"2020-10-01 01:48:00+00",11.7,15.7,,65.2,-445,-317,8,1012.19,64.6,0
"2020-10-01 01:53:00+00",11.3,14.3,,65.2,-342,-372,9,1012.24,64.5,0
"2020-10-01 01:58:00+00",12.6,14.6,,65.4,-371,-418,17,1012.28,64.5,0
"2020-10-01 02:03:00+00",13.3,15.3,,65.4,-321,-517,3,1012.23,64.5,0
"2020-10-01 02:08:00+00",13.1,16.1,,65.2,-382,-455,8,1012.35,64.5,0
"2020-10-01 02:13:00+00",16.0,19.0,,65.4,-464,-549,-5,1012.32,64.5,0
"2020-10-01 02:18:00+00",15.2,17.2,,65.4,-446,-525,23,1012.17,64.6,0
"2020-10-01 02:23:00+00",18.8,21.8,,65.6,-586,-566,7,1012.33,64.7,0
"2020-10-01 02:28:00+00",19.1,22.1,,65.8,-613,-586,8,1012.37,64.8,0
"2020-10-01 02:33:00+00",16.4,20.4,,65.8,-525,-484,20,1012.3,64.9,0
"2020-10-01 02:38:00+00",15.8,18.8,,65.7,-502,-482,33,1012.29,65,0
"2020-10-01 02:43:00+00",16.3,19.3,,65.9,-498,-558,20,1012.36,65,0
"2020-10-01 02:48:00+00",16.0,19.0,,66,-488,-502,15,1012.31,65.1,0
"2020-10-01 02:53:00+00",15.9,19.9,,65.9,-490,-531,0,1012.3,65.1,0
"2020-10-01 02:58:00+00",14.8,16.8,,66,-437,-493,12,1012.38,65.1,0
"2020-10-01 03:03:00+00",13.7,15.7,,65.9,-415,-461,21,1012.49,65.1,0
"2020-10-01 03:08:00+00",14.6,17.6,,66,-448,-477,16,1012.58,65.1,0
"2020-10-01 03:13:00+00",13.6,16.6,,66,-447,-391,55,1012.66,65.2,0
"2020-10-01 03:18:00+00",15.7,19.7,,66,-561,-445,29,1012.68,65.1,0
"2020-10-01 03:23:00+00",15.5,19.5,,65.9,-505,-469,13,1012.75,65.1,0
"2020-10-01 03:28:00+00",14.9,16.9,,65.9,-520,-426,17,1012.79,65,0
"2020-10-01 03:33:00+00",17.8,19.8,,65.8,-603,-509,-2,1012.81,65,0
"2020-10-01 03:38:00+00",13.1,17.1,,65.7,-457,-369,39,1012.9,65,0
"2020-10-01 03:43:00+00",14.3,17.3,,65.7,-509,-388,11,1012.99,64.9,0
"2020-10-01 03:48:00+00",14.4,16.4,,65.8,-539,-387,48,1013,64.9,0
"2020-10-01 03:53:00+00",13.5,14.5,,65.7,-577,-330,25,1013.06,64.9,0
"2020-10-01 03:58:00+00",14.3,16.3,,65.7,-520,-393,22,1012.95,64.8,0
"2020-10-01 04:03:00+00",13.1,17.1,,65.5,-535,-339,7,1013.04,64.8,0
"2020-10-01 04:08:00+00",12.2,14.2,,65.6,-450,-331,27,1013.07,64.8,0
"2020-10-01 04:13:00+00",15.7,18.7,,65.6,-499,-484,16,1013.07,64.6,0
"2020-10-01 04:18:00+00",16.8,20.8,,65.8,-525,-515,31,1013.07,64.7,0
"2020-10-01 04:23:00+00",14.9,16.9,,65.7,-484,-435,10,1013.09,64.8,0
"2020-10-01 04:28:00+00",16.8,20.8,,65.7,-597,-469,21,1013.25,64.7,0
"2020-10-01 04:33:00+00",17.0,20.0,,65.6,-576,-484,9,1013.13,64.7,0
"2020-10-01 04:38:00+00",15.4,18.4,,65.5,-534,-426,11,1013.16,64.7,0
"2020-10-01 04:43:00+00",15.2,18.2,,65.4,-490,-452,-1,1013.05,64.6,0
"2020-10-01 04:48:00+00",15.9,18.9,,65.4,-535,-460,25,1013.13,64.6,0
"2020-10-01 04:53:00+00",14.5,17.5,,65.4,-532,-400,24,1013.15,64.5,0
"2020-10-01 04:58:00+00",16.4,19.4,,65.3,-592,-464,19,1013.18,64.5,0
"2020-10-01 05:03:00+00",16.6,19.6,,65.4,-557,-470,33,1013.14,64.4,0
"2020-10-01 05:08:00+00",15.9,16.9,,65.3,-556,-445,12,1013.15,64.4,0
"2020-10-01 05:13:00+00",16.0,19.0,,65.1,-528,-466,16,1013.09,64.3,0
"2020-10-01 05:18:00+00",14.7,16.7,,65,-477,-421,12,1013.07,64.2,0
"2020-10-01 05:23:00+00",12.2,13.2,,64.8,-381,-400,25,1013.03,64.1,0
"2020-10-01 05:28:00+00",14.2,16.2,,64.8,-431,-453,-1,1013.01,64,0
"2020-10-01 05:33:00+00",14.8,16.8,,64.7,-450,-489,-5,1013.03,63.9,0
"2020-10-01 05:38:00+00",12.3,16.3,,64.5,-359,-410,18,1013.03,63.8,0
"2020-10-01 05:43:00+00",13.1,15.1,,64.4,-392,-440,4,1013.08,63.7,0
"2020-10-01 05:48:00+00",13.6,15.6,,64.3,-382,-482,7,1013.1,63.6,0
"2020-10-01 05:53:00+00",12.9,15.9,,64.3,-378,-440,-2,1012.98,63.5,0
"2020-10-01 05:58:00+00",13.3,16.3,,64.3,-392,-441,26,1013.06,63.4,0
"2020-10-01 06:03:00+00",13.1,16.1,,64.2,-381,-451,15,1012.98,63.4,0
"2020-10-01 06:08:00+00",12.0,15.0,,64.1,-340,-437,22,1012.91,63.3,0
"2020-10-01 06:13:00+00",12.4,14.4,,64,-357,-434,17,1012.97,63.2,0
"2020-10-01 06:18:00+00",12.6,15.6,,64,-342,-474,16,1012.99,63.2,0
"2020-10-01 06:23:00+00",11.8,14.8,,64.1,-316,-436,13,1012.95,63.2,0
"2020-10-01 06:28:00+00",11.8,13.8,,64,-344,-414,14,1012.91,63.1,0
"2020-10-01 06:33:00+00",13.1,15.1,,64.2,-372,-470,16,1012.89,63.1,0
"2020-10-01 06:38:00+00",14.3,17.3,,64.3,-422,-478,1,1012.85,63.2,0
"2020-10-01 06:43:00+00",14.8,16.8,,64.2,-450,-461,-7,1012.75,63.2,0
"2020-10-01 06:48:00+00",13.4,16.4,,64.1,-421,-412,18,1012.75,63.2,0
"2020-10-01 06:53:00+00",15.8,19.8,,64.3,-485,-523,-2,1012.78,63.2,0
"2020-10-01 06:58:00+00",12.7,15.7,,64.3,-392,-385,19,1012.69,63.3,0
"2020-10-01 07:03:00+00",14.9,17.9,,64.2,-463,-460,17,1012.62,63.3,0
"2020-10-01 07:08:00+00",16.7,19.7,,64.3,-515,-492,18,1012.64,63.3,0
"2020-10-01 07:13:00+00",15.1,17.1,,64.3,-514,-456,12,1012.6,63.4,0
"2020-10-01 07:18:00+00",15.4,19.4,,64.2,-511,-465,9,1012.62,63.3,0
"2020-10-01 07:23:00+00",14.1,16.1,,64.1,-450,-432,12,1012.58,63.3,0
"2020-10-01 07:28:00+00",12.6,15.6,,64.1,-369,-424,27,1012.49,63.2,0
"2020-10-01 07:33:00+00",12.0,14.0,,64.1,-339,-423,6,1012.37,63.2,0
"2020-10-01 07:38:00+00",14.2,16.2,,64,-396,-507,3,1012.38,63.1,0
"2020-10-01 07:43:00+00",16.0,19.0,,64.2,-452,-578,4,1012.29,63.2,0
"2020-10-01 07:48:00+00",13.0,15.0,,64.2,-377,-464,15,1012.26,63.3,0
"2020-10-01 07:53:00+00",12.8,14.8,,64.1,-359,-478,3,1012.21,63.2,0
"2020-10-01 07:58:00+00",12.7,16.7,,64.2,-338,-458,-2,1012.12,63.2,0
"2020-10-01 08:03:00+00",14.5,17.5,,64.2,-427,-514,-4,1012.11,63.2,0
"2020-10-01 08:08:00+00",16.7,19.7,,64.5,-505,-582,7,1012.11,63.3,0
"2020-10-01 08:13:00+00",14.9,16.9,,64.4,-411,-540,-10,1012.12,63.4,0
"2020-10-01 08:18:00+00",15.3,18.3,,64.3,-447,-545,1,1012.09,63.4,0
"2020-10-01 08:23:00+00",14.5,15.5,,64.3,-410,-521,-6,1012.05,63.3,0
"2020-10-01 08:28:00+00",14.1,18.1,,64.3,-372,-500,5,1012.05,63.3,0
"2020-10-01 08:33:00+00",13.7,16.7,,64.4,-381,-508,15,1011.98,63.4,0
"2020-10-01 08:38:00+00",14.8,16.8,,64.4,-421,-552,18,1012.02,63.4,0
"2020-10-01 08:43:00+00",13.4,15.4,,64.4,-375,-467,9,1011.85,63.4,0
"2020-10-01 08:48:00+00",14.9,19.9,,64.4,-429,-558,14,1011.82,63.4,0
"2020-10-01 08:53:00+00",14.6,18.6,,64.5,-434,-509,19,1011.83,63.5,0
"2020-10-01 08:58:00+00",16.0,19.0,,64.5,-456,-573,3,1011.82,63.5,0
"2020-10-01 09:03:00+00",15.5,20.5,,64.4,-441,-566,4,1011.81,63.5,0
"2020-10-01 09:08:00+00",16.6,19.6,,64.4,-482,-600,9,1011.8,63.5,0
"2020-10-01 09:13:00+00",16.6,18.6,,64.4,-465,-594,14,1011.8,63.5,0
"2020-10-01 09:18:00+00",16.4,19.4,,64.4,-462,-585,5,1011.85,63.6,0
"2020-10-01 09:23:00+00",15.4,17.4,,64.4,-455,-535,24,1011.82,63.6,0
"2020-10-01 09:28:00+00",15.5,19.5,,64.4,-456,-546,26,1011.72,63.6,0
"2020-10-01 09:33:00+00",15.6,17.6,,64.2,-461,-543,5,1011.67,63.5,0
"2020-10-01 09:38:00+00",15.9,18.9,,64.2,-480,-499,3,1011.74,63.5,0
"2020-10-01 09:43:00+00",14.0,19.0,,64.1,-420,-463,25,1011.63,63.4,0
"2020-10-01 09:48:00+00",17.9,21.9,,64,-551,-556,21,1011.68,63.3,0
"2020-10-01 09:53:00+00",17.3,23.3,,63.8,-552,-557,9,1011.71,63.3,0
"2020-10-01 09:58:00+00",16.4,18.4,,63.7,-499,-533,23,1011.72,63.2,0
"2020-10-01 10:03:00+00",17.7,20.7,,63.7,-563,-548,6,1011.75,63.1,0
"2020-10-01 10:08:00+00",15.5,18.5,,63.6,-503,-452,17,1011.71,63.1,0
"2020-10-01 10:13:00+00",17.7,20.7,,63.7,-614,-508,0,1011.72,63,0
"2020-10-01 10:18:00+00",13.6,15.6,,63.6,-470,-372,20,1011.69,63,0
"2020-10-01 10:23:00+00",13.6,18.6,,63.6,-502,-376,30,1011.74,63,0
"2020-10-01 10:28:00+00",13.4,16.4,,63.6,-536,-351,30,1011.8,62.9,0
"2020-10-01 10:33:00+00",15.2,18.2,,63.7,-561,-415,21,1011.74,62.9,0
"2020-10-01 10:38:00+00",15.5,18.5,,63.6,-577,-416,25,1011.79,62.8,0
"2020-10-01 10:43:00+00",13.7,15.7,,63.5,-532,-341,8,1011.87,62.8,0
"2020-10-01 10:48:00+00",13.6,16.6,,63.5,-518,-351,17,1011.95,62.7,0
"2020-10-01 10:53:00+00",12.2,15.2,,63.3,-476,-301,15,1012.07,62.7,0
"2020-10-01 10:58:00+00",12.5,16.5,,63.2,-492,-307,20,1012.09,62.6,0
"2020-10-01 11:03:00+00",12.2,15.2,,63.1,-510,-260,17,1012.22,62.5,0
"2020-10-01 11:08:00+00",11.2,13.2,,63,-461,-227,29,1012.23,62.4,0
"2020-10-01 11:13:00+00",12.9,14.9,,63,-540,-242,25,1012.25,62.3,0
"2020-10-01 11:18:00+00",10.6,12.6,,63,-424,-188,42,1012.21,62.4,0
"2020-10-01 11:23:00+00",14.0,15.0,,63.1,-583,-252,20,1012.14,62.3,0
"2020-10-01 11:28:00+00",11.8,13.8,,63.1,-478,-198,21,1012.21,62.4,0
"2020-10-01 11:33:00+00",12.1,14.1,,63.1,-505,-192,6,1012.2,62.5,0
"2020-10-01 11:38:00+00",13.8,15.8,,63.1,-552,-211,20,1012.18,62.8,0
"2020-10-01 11:43:00+00",13.3,15.3,,63.1,-543,-183,13,1012.16,63.2,0
"2020-10-01 11:48:00+00",12.7,14.7,,63.1,-526,-261,9,1012.1,63.7,0
"2020-10-01 11:53:00+00",11.6,12.6,,63.1,-479,-200,35,1012.2,64.2,0
"2020-10-01 11:58:00+00",14.5,16.5,,63,-597,-227,19,1012.23,64.6,0
"2020-10-01 12:03:00+00",13.0,15.0,,62.9,-545,-144,21,1012.2,64.9,0
"2020-10-01 12:08:00+00",12.9,15.9,,63,-545,-181,12,1012.23,65.3,0
"2020-10-01 12:13:00+00",10.5,13.5,,63.1,-438,-155,31,1012.2,65.7,0
"2020-10-01 12:18:00+00",10.9,12.9,,63.3,-455,-96,-19,1012.15,66,0
"2020-10-01 12:23:00+00",10.2,12.2,,63.5,-440,-81,11,1012.23,66.5,0
"2020-10-01 12:28:00+00",14.5,19.5,,63.7,-625,-85,-6,1012.15,66.8,0
"2020-10-01 12:33:00+00",12.5,14.5,,63.8,-547,12,3,1012.16,66.7,0
"2020-10-01 12:38:00+00",13.5,17.5,,64,-590,-5,30,1012.3,66.8,0
"2020-10-01 12:43:00+00",13.3,15.3,,64.2,-609,-13,21,1012.22,66.9,0
"2020-10-01 12:48:00+00",14.0,18.0,,64.3,-637,-41,41,1012.29,66.9,0
"2020-10-01 12:53:00+00",15.5,16.5,,64.3,-712,41,24,1012.28,66.8,0
"2020-10-01 12:58:00+00",14.5,16.5,,64.3,-659,8,5,1012.26,66.7,0
"2020-10-01 13:03:00+00",12.0,13.0,,64.7,-547,54,11,1012.42,67.1,0
"2020-10-01 13:08:00+00",10.0,11.0,,64.9,-428,25,90,1012.48,67.5,0
"2020-10-01 13:13:00+00",13.7,14.7,,64.8,-611,108,30,1012.33,67.7,0
"2020-10-01 13:18:00+00",13.1,14.1,,65,-586,13,16,1012.42,67.9,0
"2020-10-01 13:23:00+00",13.0,14.0,,65.3,-566,119,34,1012.48,68.2,0
"2020-10-01 13:28:00+00",12.1,13.1,,65.3,-539,66,5,1012.53,68.3,0
"2020-10-01 13:33:00+00",11.5,13.5,,65.5,-505,103,14,1012.55,68.6,0
"2020-10-01 13:38:00+00",13.1,15.1,,65.7,-575,141,23,1012.42,68.9,0
"2020-10-01 13:43:00+00",10.4,11.4,,66.1,-446,160,35,1012.43,69.1,0
"2020-10-01 13:48:00+00",13.3,15.3,,66.2,-564,241,33,1012.54,69.4,0
"2020-10-01 13:53:00+00",12.1,14.1,,66.2,-500,255,22,1012.59,69.6,0
"2020-10-01 13:58:00+00",11.9,13.9,,66.2,-495,197,42,1012.59,69.7,0
"2020-10-01 14:03:00+00",13.4,15.4,,66.3,-555,223,36,1012.64,69.9,0
"2020-10-01 14:08:00+00",13.2,15.2,,66.5,-551,226,36,1012.74,69.9,0
"2020-10-01 14:13:00+00",11.5,13.5,,66.6,-492,159,-4,1012.74,70.1,0
"2020-10-01 14:18:00+00",13.4,14.4,,66.2,-581,187,12,1012.73,70.2,0
"2020-10-01 14:23:00+00",12.2,13.2,,66.2,-545,88,13,1012.71,70.3,0
"2020-10-01 14:28:00+00",11.5,12.5,,66.5,-511,76,26,1012.78,70.5,0
"2020-10-01 14:33:00+00",10.3,11.3,,66.7,-447,79,-4,1012.8,70.7,0
"2020-10-01 14:38:00+00",8.3,9.3,,67.1,-358,61,26,1012.83,71.2,0
"2020-10-01 14:43:00+00",7.9,8.9,,67.1,-350,7,-6,1012.95,71.9,0
"2020-10-01 14:48:00+00",6.7,9.7,,67.4,-278,4,26,1012.96,72.9,0
"2020-10-01 14:53:00+00",6.9,8.9,,67.7,-313,30,2,1012.94,74,0
"2020-10-01 14:58:00+00",6.3,7.3,,68,-264,63,8,1012.81,74.7,0
"2020-10-01 15:03:00+00",6.9,7.9,,68.3,-302,-16,27,1012.89,75.3,0
"2020-10-01 15:08:00+00",7.1,8.1,,68.4,-316,62,7,1012.84,76,0
"2020-10-01 15:13:00+00",6.8,7.8,,68.6,-304,-21,5,1012.8,76.6,0
"2020-10-01 15:18:00+00",6.5,7.5,,68.7,-279,34,4,1012.79,77.4,0
"2020-10-01 15:23:00+00",7.3,8.3,,68.9,-317,68,-13,1012.81,77.8,0
"2020-10-01 15:28:00+00",6.6,7.6,,69.1,-288,-29,12,1012.87,77.8,0
"2020-10-01 15:33:00+00",4.5,5.5,,69.3,-179,65,10,1012.82,77.9,0
"2020-10-01 15:38:00+00",6.3,7.3,,69.4,-280,24,4,1012.74,78.3,0
"2020-10-01 15:43:00+00",4.5,6.5,,69.6,-181,16,-2,1012.76,78.8,0
"2020-10-01 15:48:00+00",5.4,6.4,,70,-215,-66,3,1012.65,79.4,0
"2020-10-01 15:53:00+00",7.8,8.8,,70.1,-340,-14,6,1012.66,79.7,0
"2020-10-01 15:58:00+00",6.2,7.2,,70.2,-262,-28,-12,1012.7,80,0
"2020-10-01 16:03:00+00",8.1,9.1,,70.5,-351,-23,-1,1012.62,80.1,0
"2020-10-01 16:08:00+00",6.1,7.1,,70.7,-249,-62,-9,1012.67,80,0
"2020-10-01 16:13:00+00",8.2,10.2,,70.8,-338,-82,18,1012.65,80.4,0
"2020-10-01 16:18:00+00",5.9,7.9,,70.8,-249,-10,0,1012.65,80.5,0
"2020-10-01 16:23:00+00",6.3,9.3,,71.1,-290,84,15,1012.59,80.3,0
"2020-10-01 16:28:00+00",6.9,8.9,,71,-289,76,-14,1012.62,80.2,0
"2020-10-01 16:33:00+00",9.8,11.8,,71,-423,44,30,1012.64,80.1,0
"2020-10-01 16:38:00+00",6.4,8.4,,71.1,-274,-23,-2,1012.63,80.4,0
"2020-10-01 16:43:00+00",4.6,6.6,,71.2,-193,-14,3,1012.58,80.9,0
"2020-10-01 16:48:00+00",6.5,7.5,,71.4,-254,89,8,1012.53,81.1,0
"2020-10-01 16:53:00+00",5.0,6.0,,71.5,-178,97,-2,1012.54,80.7,0
"2020-10-01 16:58:00+00",3.1,6.1,,71.8,24,-80,9,1012.6,80.2,0
"2020-10-01 17:03:00+00",9.3,11.3,,71.3,-123,-368,-31,1012.5,77,0
"2020-10-01 17:08:00+00",6.6,9.6,,71.5,-70,-261,20,1012.58,75.7,0
"2020-10-01 17:13:00+00",9.3,10.3,,71.1,81,-389,9,1012.57,74.4,0
"2020-10-01 17:18:00+00",10.1,12.1,,69.9,108,-403,11,1012.63,72.7,0
"2020-10-01 17:23:00+00",9.8,11.8,,69.9,92,-395,15,1012.69,72.2,0
"2020-10-01 17:28:00+00",10.2,13.2,,70.3,65,-426,-21,1012.63,72.4,0
"2020-10-01 17:33:00+00",11.2,13.2,,69.7,36,-461,-17,1012.62,71.7,0
"2020-10-01 17:38:00+00",12.1,14.1,,69.8,149,-517,-17,1012.58,71.8,0
"2020-10-01 17:43:00+00",12.5,14.5,,69.9,180,-519,-34,1012.61,71.9,0
"2020-10-01 17:48:00+00",12.9,15.9,,69.4,157,-541,6,1012.56,71.6,0
"2020-10-01 17:53:00+00",14.0,16.0,,69.3,128,-584,-25,1012.68,71.4,0
"2020-10-01 17:58:00+00",11.6,15.6,,69.4,47,-468,-7,1012.63,71.3,0
"2020-10-01 18:03:00+00",7.7,11.7,,69.7,40,-324,38,1012.6,71.6,0
"2020-10-01 18:08:00+00",12.4,15.4,,69,102,-523,8,1012.63,71.2,0
"2020-10-01 18:13:00+00",11.5,14.5,,69.4,106,-479,13,1012.61,71.3,0
"2020-10-01 18:18:00+00",13.0,15.0,,69.3,40,-537,-14,1012.51,71.3,0
"2020-10-01 18:23:00+00",13.8,16.8,,68.7,59,-578,-26,1012.52,70.6,0
"2020-10-01 18:28:00+00",12.8,15.8,,69,18,-542,-25,1012.49,70.6,0
"2020-10-01 18:33:00+00",14.1,16.1,,68.9,80,-603,-36,1012.48,70.6,0
"2020-10-01 18:38:00+00",11.4,15.4,,69.2,33,-452,18,1012.37,70.7,0
"2020-10-01 18:43:00+00",14.2,17.2,,69.4,70,-592,-21,1012.29,71.1,0
"2020-10-01 18:48:00+00",9.9,12.9,,69.2,-34,-414,18,1012.35,70.7,0
"2020-10-01 18:53:00+00",14.8,17.8,,69,58,-625,-35,1012.33,70.5,0
"2020-10-01 18:58:00+00",9.6,13.6,,69.7,11,-394,33,1012.26,70.9,0
"2020-10-01 19:03:00+00",14.0,17.0,,69.4,9,-589,-45,1012.19,70.8,0
"2020-10-01 19:08:00+00",13.1,17.1,,69.5,-43,-551,-24,1012.24,71.1,0
"2020-10-01 19:13:00+00",11.0,15.0,,69.4,-23,-480,-14,1012.2,70.8,0
"2020-10-01 19:18:00+00",10.7,14.7,,69.6,-58,-437,31,1012.23,71,0
"2020-10-01 19:23:00+00",10.6,15.6,,69.8,-54,-434,26,1012.24,71.1,0
"2020-10-01 19:28:00+00",12.2,15.2,,69.6,1,-530,-13,1012.24,71.1,0
"2020-10-01 19:33:00+00",8.7,12.7,,69.9,-56,-371,13,1012.17,71.1,0
"2020-10-01 19:38:00+00",10.9,14.9,,69.9,-5,-457,-10,1012.2,71.1,0
"2020-10-01 19:43:00+00",10.9,13.9,,69.8,-72,-437,17,1012.14,71.1,0
"2020-10-01 19:48:00+00",11.0,14.0,,69.7,29,-460,-8,1012.14,71.1,0
"2020-10-01 19:53:00+00",11.6,15.6,,69.5,-15,-512,-6,1012.18,70.8,0
"2020-10-01 19:58:00+00",11.5,14.5,,69.5,-44,-491,-10,1012.16,70.8,0
"2020-10-01 20:03:00+00",12.4,16.4,,69.5,-107,-524,1,1012.15,70.7,0
"2020-10-01 20:08:00+00",10.3,15.3,,69.6,-26,-416,12,1012.08,70.6,0
"2020-10-01 20:13:00+00",10.2,13.2,,69.7,-38,-441,-10,1012.13,70.6,0
"2020-10-01 20:18:00+00",10.8,13.8,,69.6,-17,-443,-8,1012.08,70.5,0
"2020-10-01 20:23:00+00",6.6,9.6,,69.9,-20,-260,32,1012.21,70.9,0
"2020-10-01 20:28:00+00",10.3,13.3,,69.8,-13,-451,-25,1012.12,70.8,0
"2020-10-01 20:33:00+00",11.3,13.3,,69.6,37,-465,-21,1012.1,70.4,0
"2020-10-01 20:38:00+00",9.4,11.4,,69.7,-16,-370,-16,1012.04,70.2,0
"2020-10-01 20:43:00+00",10.4,14.4,,69.7,6,-436,-34,1012,70.2,0
"2020-10-01 20:48:00+00",7.7,10.7,,69.8,-45,-339,13,1012.12,70.3,0
"2020-10-01 20:53:00+00",10.1,12.1,,69.6,-15,-426,-28,1012.07,70.3,0
"2020-10-01 20:58:00+00",10.3,12.3,,69.9,-10,-445,-35,1012.07,70.4,0
"2020-10-01 21:03:00+00",9.3,11.3,,69.7,10,-393,-43,1012.1,70.3,0
"2020-10-01 21:08:00+00",7.9,9.9,,69.7,10,-328,-11,1012.08,70.1,0
"2020-10-01 21:13:00+00",7.7,10.7,,69.7,68,-303,7,1012.17,70.2,0
"2020-10-01 21:18:00+00",10.5,12.5,,69.3,100,-437,-13,1012.22,69.9,0
"2020-10-01 21:23:00+00",11.3,13.3,,69.2,76,-485,-24,1012.25,69.8,0
"2020-10-01 21:28:00+00",9.4,11.4,,69.3,30,-393,-14,1012.22,69.7,0
"2020-10-01 21:33:00+00",9.7,11.7,,69.6,-80,-440,-11,1012.29,69.8,0
"2020-10-01 21:38:00+00",9.0,11.0,,69.5,-49,-373,-17,1012.33,69.8,0
"2020-10-01 21:43:00+00",8.8,9.8,,69.4,-65,-386,-11,1012.38,69.7,0
"2020-10-01 21:48:00+00",7.8,9.8,,69.3,-59,-317,-1,1012.52,69.4,0
"2020-10-01 21:53:00+00",7.9,9.9,,69.2,-108,-313,-9,1012.65,69.3,0
"2020-10-01 21:58:00+00",7.5,9.5,,69,-109,-308,6,1012.63,69.1,0
"2020-10-01 22:03:00+00",8.7,10.7,,68.9,-171,-342,3,1012.66,68.9,0
"2020-10-01 22:08:00+00",7.7,9.7,,68.7,-152,-300,0,1012.72,68.7,0
"2020-10-01 22:13:00+00",7.0,8.0,,68.6,-125,-276,5,1012.76,68.6,0
"2020-10-01 22:18:00+00",7.1,8.1,,68.6,-157,-277,-5,1012.79,68.4,0
"2020-10-01 22:23:00+00",7.0,8.0,,68.5,-159,-262,-4,1012.81,68.3,0
"2020-10-01 22:28:00+00",7.2,8.2,,68.4,-167,-288,-1,1012.9,68.2,0
"2020-10-01 22:33:00+00",6.4,7.4,,68.4,-133,-249,-3,1012.81,68.1,0
"2020-10-01 22:38:00+00",6.2,7.2,,68.3,-91,-249,-7,1012.91,68,0
"2020-10-01 22:43:00+00",5.2,6.2,,68.1,-39,-218,-13,1012.93,67.8,0
"2020-10-01 22:48:00+00",5.6,6.6,,68,-71,-225,-5,1012.98,67.6,0
"2020-10-01 22:53:00+00",5.7,6.7,,67.9,-69,-232,-6,1013.07,67.4,0
"2020-10-01 22:58:00+00",3.9,3.9,,67.9,-38,-151,-8,1013.14,67.4,0
"2020-10-01 23:03:00+00",4.1,5.1,,67.9,-83,-158,0,1013.22,67.4,0
"2020-10-01 23:08:00+00",3.3,4.3,,67.9,-97,-99,3,1013.29,67.4,0
"2020-10-01 23:13:00+00",3.2,4.2,,67.9,-59,-112,3,1013.28,67.5,0
"2020-10-01 23:18:00+00",4.9,5.9,,68,-89,-196,-5,1013.46,67.5,0
"2020-10-01 23:23:00+00",3.0,4.0,,68.2,-38,-105,-13,1013.41,67.5,0
"2020-10-01 23:28:00+00",1.5,1.5,,68.2,53,21,4,1013.32,67.6,0
"2020-10-01 23:33:00+00",9.0,10.0,,67.7,178,349,-1,1013.38,67,0
"2020-10-01 23:38:00+00",5.2,6.2,,68,126,178,10,1013.29,66.5,0
"2020-10-01 23:43:00+00",6.6,7.6,,67.8,55,269,0,1013.27,65.9,0
"2020-10-01 23:48:00+00",9.9,10.9,,67.4,-79,436,6,1013.45,65.6,0
"2020-10-01 23:53:00+00",9.2,11.2,,66.9,-69,408,1,1013.47,65.2,0
"2020-10-01 23:58:00+00",9.2,11.2,,66.7,-96,394,7,1013.58,65,0
